Total_Precipitation_Accumulation
2.41 2.48 2.50 2.56 2.43 2.24 2.20 2.30 2.44 2.26 2.08 1.88 1.66 1.46 1.53 1.54 1.64 1.46 1.40 1.35 1.23 1.15 1.09 1.00 0.95 1.05 1.34 1.70 1.86 1.79 1.84 2.07 2.44 2.78 2.67 2.61 2.52 2.45
2.12 2.19 2.24 2.27 2.29 2.25 2.22 2.23 2.24 2.22 2.12 1.90 1.60 1.32 1.37 1.45 1.63 1.40 1.43 1.55 1.34 1.16 1.02 1.00 0.97 0.96 1.04 1.18 1.28 1.21 1.15 1.24 1.55 2.17 2.40 2.40 2.44 2.50
1.83 1.87 1.99 2.06 2.25 2.28 2.24 2.21 2.20 2.13 1.99 1.88 1.63 1.41 1.37 1.45 1.54 1.44 1.45 1.47 1.32 1.25 1.11 1.05 0.95 1.00 1.04 1.07 1.15 1.08 0.94 0.88 0.95 1.18 1.50 1.71 1.92 2.19
1.59 1.61 1.75 1.82 1.97 2.08 2.18 2.09 2.09 2.07 2.06 2.00 1.78 1.57 1.48 1.48 1.56 1.52 1.39 1.36 1.35 1.39 1.26 1.17 1.07 0.99 1.05 1.04 1.14 1.19 1.10 0.93 0.86 0.88 1.00 1.18 1.40 1.62
1.36 1.41 1.48 1.55 1.69 1.80 1.90 1.98 2.00 1.94 2.04 2.02 1.82 1.63 1.48 1.42 1.47 1.45 1.40 1.45 1.36 1.42 1.36 1.25 1.20 1.11 1.10 1.09 1.08 1.17 1.18 1.09 0.93 0.89 0.96 1.04 1.15 1.28
1.11 1.10 1.13 1.17 1.31 1.45 1.56 1.71 1.88 2.00 2.08 2.10 1.95 1.69 1.50 1.44 1.51 1.57 1.57 1.48 1.49 1.39 1.39 1.36 1.34 1.29 1.20 1.18 1.08 1.07 1.15 1.16 1.01 0.94 0.92 0.95 0.97 0.99
1.13 1.01 0.93 0.94 1.04 1.13 1.22 1.49 1.70 1.86 2.01 2.07 1.98 1.80 1.62 1.54 1.51 1.50 1.58 1.67 1.67 1.51 1.46 1.37 1.32 1.17 1.06 1.08 1.08 1.02 1.00 1.02 0.95 0.87 0.80 0.74 0.75 0.80
1.10 1.08 1.06 1.02 0.90 0.86 0.92 1.08 1.32 1.52 1.72 1.85 1.89 1.74 1.57 1.53 1.58 1.58 1.57 1.63 1.69 1.54 1.49 1.56 1.49 1.34 1.18 1.07 1.14 1.06 0.99 0.98 0.98 0.96 0.89 0.82 0.80 0.79
1.08 1.08 1.11 1.08 1.12 1.00 0.95 0.92 0.94 1.11 1.36 1.57 1.61 1.56 1.63 1.57 1.53 1.49 1.48 1.47 1.49 1.52 1.53 1.56 1.53 1.40 1.22 1.16 1.24 1.18 1.11 1.05 1.03 1.04 1.03 0.96 0.88 0.81
1.19 1.20 1.24 1.25 1.20 1.31 1.26 1.14 1.04 1.02 1.13 1.07 1.16 1.45 1.59 1.61 1.62 1.63 1.66 1.57 1.50 1.50 1.43 1.46 1.38 1.32 1.19 1.12 1.18 1.12 1.06 1.02 1.01 1.00 1.04 1.07 1.06 1.01
1.21 1.19 1.22 1.21 1.42 1.47 1.34 1.29 1.19 1.12 1.29 1.31 1.32 1.38 1.46 1.46 1.46 1.53 1.59 1.55 1.49 1.45 1.35 1.26 1.20 1.28 1.31 1.21 1.18 1.24 1.18 1.10 1.04 1.05 1.07 1.08 1.13 1.15
1.30 1.22 1.37 1.30 1.31 1.27 1.18 1.34 1.29 1.17 1.09 1.06 1.07 1.13 1.15 1.20 1.27 1.29 1.43 1.47 1.40 1.42 1.29 1.24 1.20 1.26 1.31 1.22 1.10 1.10 1.15 1.19 1.15 1.09 1.12 1.13 1.15 1.10
1.24 1.23 1.19 1.31 1.14 1.10 1.11 1.20 1.35 1.30 1.23 1.25 1.18 1.12 1.09 1.07 1.05 1.10 1.23 1.33 1.36 1.36 1.23 1.20 1.25 1.27 1.20 1.10 1.08 0.99 0.92 0.95 0.97 0.94 0.96 1.03 1.08 1.04
1.10 0.99 0.99 1.11 0.97 0.93 0.91 1.01 1.19 1.21 1.17 1.22 1.18 1.10 1.05 1.02 0.99 1.01 1.09 1.16 1.18 1.21 1.24 1.22 1.23 1.24 1.21 1.05 0.99 0.98 0.95 0.91 0.91 0.88 0.82 0.96 0.99 1.03
0.93 0.94 0.87 0.84 0.84 0.77 0.80 0.91 0.96 1.07 1.17 1.19 1.07 0.98 0.98 1.02 1.03 1.03 1.02 1.06 1.10 1.09 1.09 1.08 1.13 1.21 1.26 1.14 1.01 0.98 1.00 1.01 0.97 0.95 0.92 0.89 0.86 0.89
0.74 0.67 0.66 0.68 0.72 0.72 0.72 0.73 0.78 0.99 1.16 1.12 1.03 0.96 0.97 1.02 1.11 1.14 1.13 1.08 1.09 1.10 1.07 1.07 1.07 1.11 1.11 1.05 1.05 1.03 1.02 1.03 1.01 1.06 1.07 1.03 0.94 0.85
0.89 0.79 0.71 0.68 0.67 0.69 0.69 0.73 0.84 0.96 1.08 1.02 1.03 0.98 0.97 1.04 1.10 1.15 1.24 1.22 1.15 1.08 1.13 1.19 1.25 1.25 1.19 1.14 1.12 1.07 1.08 1.06 1.07 1.13 1.15 1.12 1.03 0.93
0.92 0.87 0.87 0.85 0.82 0.80 0.77 0.73 0.73 0.82 0.90 0.97 0.98 0.99 0.99 0.99 1.00 1.04 1.13 1.19 1.17 1.11 1.07 1.12 1.26 1.39 1.39 1.28 1.13 1.08 1.14 1.14 1.16 1.20 1.19 1.12 1.01 0.95
0.80 0.80 0.83 0.80 0.78 0.78 0.76 0.73 0.71 0.71 0.78 0.87 0.99 1.06 1.08 1.08 1.07 1.05 1.04 1.07 1.05 1.03 1.02 1.03 1.13 1.26 1.36 1.25 1.08 0.97 1.03 1.10 1.15 1.15 1.14 1.08 0.96 0.88
0.67 0.73 0.74 0.74 0.72 0.72 0.71 0.69 0.68 0.68 0.71 0.76 0.85 0.98 1.13 1.22 1.23 1.20 1.17 1.17 1.15 1.08 1.06 1.04 1.03 1.10 1.22 1.19 1.06 0.92 0.93 1.01 1.06 1.05 1.00 0.98 0.96 0.99
0.50 0.57 0.60 0.61 0.62 0.64 0.66 0.69 0.72 0.72 0.72 0.73 0.75 0.80 0.91 1.08 1.18 1.23 1.29 1.39 1.36 1.26 1.20 1.15 1.12 1.20 1.18 1.20 1.11 0.86 0.81 0.88 0.93 0.94 0.97 1.02 0.99 0.93
0.49 0.52 0.54 0.56 0.59 0.62 0.64 0.67 0.70 0.72 0.74 0.76 0.75 0.77 0.84 0.93 1.03 1.11 1.17 1.25 1.31 1.32 1.30 1.25 1.23 1.27 1.27 1.31 1.18 0.97 0.90 0.89 0.90 0.99 1.03 1.11 1.08 0.98
0.49 0.49 0.50 0.53 0.56 0.61 0.70 0.75 0.73 0.71 0.74 0.80 0.86 0.88 0.90 0.94 0.97 1.04 1.10 1.16 1.22 1.22 1.22 1.24 1.21 1.19 1.19 1.18 1.20 1.14 1.04 0.98 0.95 0.92 0.88 1.01 1.03 0.94